OpenBCM V1.13 (Linux)

Packet Radio Mailbox

DB0FHN

[JN59NK Nuernberg]

 Login: GUEST





  
I0OJJ  > KEPS     11.08.25 02:31l 321 Lines 15288 Bytes #999 (0) @ AMSAT
BID : ORB25223.1
Read: DJ6UX GUEST
Subj: 2Line Orbital Elements 25223.AMSAT
Path: DB0FHN<OE2XZR<OE6XPE<DB0ERF<IZ3LSV<ED1ZAC<LU1DBQ<LU9DCE<EA2RCF<I0OJJ
Sent: 250811/0025z @:I0OJJ.ITA.EU [Rome] obcm1.08-10-g596e
From: I0OJJ @ I0OJJ.ITA.EU (Gustavo)
To:   KEPS @ AMSAT
X-Info: This message was generated automatically


QST de W1STR

AMSAT Orbital Elements for Amateur Satellites in TLE Format
From Orbital Analysis Office
New England Sci-Tech STEM Education Center
Natick, MA August 11, 2025
To all radio amateurs


These element sets describe the orbits of various satellites 
in use by the amateur radio community. For details see:
www.amsat.org/keplerian-elements-formats/

A daily update of element sets is available at:
www.amsat.org/tle/daily-bulletin.txt
or without bulletin text:
www.amsat.org/tle/dailytle.txt


AO-07
1 07530U 74089B   25222.75525752 -.00000038  00000-0  53156-4 0  9990
2 07530 101.9957 227.6848 0012304   5.5275 174.8728 12.53690701321850
UO-11
1 14781U 84021B   25222.47368829  .00001364  00000-0  14877-3 0  9990
2 14781  97.7593 187.6396 0009070 125.4494 234.7571 14.89539372210854
AO-27
1 22825U 93061C   25222.45576822  .00000110  00000-0  59269-4 0  9997
2 22825  98.7327 284.3075 0007326 294.8568  65.1853 14.30816421662569
FO-29
1 24278U 96046B   25222.63638026  .00000007  00000-0  42279-4 0  9990
2 24278  98.5663 108.3431 0349887 181.6548 178.3461 13.53251567431167
NOAA-15
1 25338U 98030A   25222.79517434  .00000180  00000-0  91566-4 0  9994
2 25338  98.5337 246.4235 0010445 170.6153 189.5225 14.27009742417270
GO-32
1 25397U 98043D   25222.86160884  .00000070  00000-0  50447-4 0  9995
2 25397  98.9756 203.2957 0002099  56.5121 303.6258 14.24328395407379
ISS
1 25544U 98067A   25222.79841721  .00009330  00000-0  16861-3 0  9992
2 25544  51.6346  36.3869 0001295 176.8868 183.2129 15.50445660523634
NO-44
1 26931U 01043C   25222.60769108  .00000137  00000-0  82449-4 0  9991
2 26931  67.0526 327.4627 0006630 276.3923  83.6423 14.31760411245989
SO-50
1 27607U 02058C   25222.57932853  .00001067  00000-0  14911-3 0  9995
2 27607  64.5539   9.1315 0062883 320.7108  38.9443 14.81773853218417
CO-55
1 27844U 03031E   25222.58209818  .00000314  00000-0  15556-3 0  9999
2 27844  98.6774 230.0590 0009896  15.0947 345.0525 14.24037420147491
CO-57
1 27848U 03031J   25222.55959363  .00000258  00000-0  13315-3 0  9995
2 27848  98.6802 229.9954 0010143  31.7953 328.3836 14.23366355147183
RS-22
1 27939U 03042A   25222.86459707  .00001162  00000-0  19138-3 0  9993
2 27939  98.3335  33.8435 0011648 166.6941 329.8779 14.72481290169999
CO-58
1 28895U 05043F   25222.34579905  .00001690  00000-0  28220-3 0  9992
2 28895  98.2577   7.5007 0015651 110.0452 250.2441 14.71194931 56023
CO-65
1 32785U 08021C   25222.58404511  .00005731  00000-0  40823-3 0  9993
2 32785  97.7905 194.2438 0009891  16.0810 344.0728 15.04968573938408
CO-66
1 32791U 08021J   25222.67828465  .00012745  00000-0  59410-3 0  9993
2 32791  97.7318 204.1737 0002105 353.3399   6.7807 15.20023370940000
RS-30
1 32953U 08025A   25222.85364705  .00000009  00000-0 -45181-5 0  9992
2 32953  82.5040 188.4526 0017895 270.6938  89.2091 12.43166970781264
NOAA-19
1 33591U 09005A   25222.85413056  .00000177  00000-0  11848-3 0  9990
2 33591  98.9936 287.8973 0013775 183.5527 176.5549 14.13394802850909
SRMSAT
1 37841U 11058D   25222.47451880  .00000402  00000-0  74728-4 0  9996
2 37841  19.9711 139.9918 0011719  26.6204 129.1943 14.11451463713866
ZACUBE-1
1 39417U 13066B   25222.61953266  .00004676  00000-0  40257-3 0  9995
2 39417  97.7831 179.3375 0043206 202.3535 157.5805 14.97134618634199
Delfi-N3xt
1 39428U 13066N   25222.73417683  .00006341  00000-0  63621-3 0  9999
2 39428  97.8312 139.7083 0084495 154.5946 205.9462 14.89001223628502
GOMX-1
1 39430U 13066Q   25222.86434370  .00001815  00000-0  28651-3 0  9993
2 39430  97.6778  77.6940 0131978 353.7598   6.1958 14.67858611624544
LO-74
1 39440U 13066AA  25222.25410883  .00005305  00000-0  53237-3 0  9996
2 39440  97.8513 166.4089 0060775 338.1044  21.7578 14.90358989630620
AO-73
1 39444U 13066AE  25222.34174795  .00006326  00000-0  46561-3 0  9995
2 39444  97.7861 184.5364 0041770 174.3612 185.8092 15.03026718632869
DTUSAT-2
1 40030U 14033W   25222.37408404  .00006822  00000-0  43587-3 0  9999
2 40030  98.0595 197.2272 0008409 199.2084 160.8827 15.08968717605712
EO-80
1 40032U 14033Y   25222.45751546  .00007297  00000-0  46474-3 0  9993
2 40032  98.0483 196.8835 0009793 141.6837 218.5088 15.09046478605705
LILACSAT-2
1 40908U 15049K   25222.81164367  .00012357  00000-0  30942-3 0  9998
2 40908  97.5039 244.7093 0006962 301.3115  58.7449 15.40206128547802
IO-86
1 40931U 15052B   25151.18580175  .00001241  00000-0  78118-4 0  9996
2 40931   6.0006  24.0987 0012733 338.8432  21.1169 14.78805930523159
Horyu-4
1 41340U 16012D   25221.99856966  .00030300  00000-0  74713-3 0  9993
2 41340  30.9963  78.1860 0007567 341.9799  18.0578 15.39293815522252
Lapan A3
1 41603U 16040E   25222.76160076  .00003801  00000-0  13215-3 0  9998
2 41603  97.1387 224.9486 0012380  54.3239 305.9153 15.30240331507297
CAS-2T
1 41847U 16066G   25222.23191446  .00000820  00000-0  12576-3 0  9990
2 41847  98.4173 296.1496 0345355 352.1768   7.4115 14.43644285459919
CAS-4B
1 42759U 17034B   25222.72609746  .00118007  00000-0  83960-3 0  9992
2 42759  43.0045 309.2315 0022078   4.2592 355.8460 15.72416764452352
CAS-4A
1 42761U 17034D   25222.69663286  .00122321  00000-0  79550-3 0  9994
2 42761  43.0083 305.7130 0022915   9.2924 350.8365 15.74453621452384
TechnoSat
1 42829U 17042E   25222.53937557  .00004180  00000-0  32158-3 0  9991
2 42829  97.3965  28.2927 0018041  72.0868 288.2323 15.02075762440024
AO-91
1 43017U 17073E   25222.61764894  .00008297  00000-0  41963-3 0  9993
2 43017  97.5161  91.8276 0168423 315.6009  43.1815 15.05703872418549
S-Net D
1 43186U 18014G   25222.30760978  .00005237  00000-0  30562-3 0  9995
2 43186  97.5556 124.5840 0009553  24.6064 335.5621 15.12338896411703
S-Net B
1 43187U 18014H   25222.44615081  .00005294  00000-0  30903-3 0  9997
2 43187  97.5562 124.6959 0010083  18.9374 341.2229 15.12320961411727
S-Net A
1 43188U 18014J   25222.50627557  .00005119  00000-0  29872-3 0  9995
2 43188  97.5569 124.9136 0009980  19.5072 340.6538 15.12346360411739
S-Net C
1 43189U 18014K   25222.18404583  .00005408  00000-0  31555-3 0  9994
2 43189  97.5587 124.6195 0011262  12.1315 348.0185 15.12315218410239
Ten-Koh
1 43677U 18084G   25222.47220303  .00002588  00000-0  20868-3 0  9992
2 43677  98.0838  37.1778 0008589  66.5373 293.6751 15.00823199369524
PO-101
1 43678U 18084H   25222.82472760  .00002326  00000-0  19936-3 0  9992
2 43678  98.1053  41.3447 0008678  83.1046 277.1163 14.98565999369707
QO-100
1 43700U 18090A   25222.26070531  .00000145  00000-0  00000-0 0  9999
2 43700   0.0250 110.5657 0001168  38.4474 289.6369  1.00268735 24555
MinXSS-2
1 43758U 18099A   25222.14408651  .00021234  00000-0  79182-3 0  9998
2 43758  97.4980 288.4360 0009896 300.2467  59.7791 15.27404598366368
AO-95
1 43770U 18099N   25222.69004653  .00009657  00000-0  47458-3 0  9992
2 43770  97.4871 280.1131 0010069   5.5325 354.6018 15.18208621365972
SNUSat 2
1 43782U 18099AA  25222.69255419  .00008192  00000-0  43677-3 0  9995
2 43782  97.4551 276.3534 0010294 301.4377  58.5848 15.15389437365905
SnugLite
1 43784U 18099AC  25222.11350938  .00011713  00000-0  57019-3 0  9994
2 43784  97.4365 275.4770 0001947 315.1723  44.9353 15.18528383365979
ITASat 1
1 43786U 18099AE  25222.57074310  .00007264  00000-0  40714-3 0  9993
2 43786  97.4518 275.5570 0013707 358.5324   1.5865 15.13609679365830
EAGLET 1
1 43790U 18099AJ  25222.87149853  .00004570  00000-0  28861-3 0  9992
2 43790  97.4719 275.5946 0011173 343.8183  16.2688 15.09509052365464
ESEO
1 43792U 18099AL  25222.66186498  .00001809  00000-0  13933-3 0  9993
2 43792  97.4450 267.8116 0010748 315.8655  44.1713 15.02819200365147
CSIM
1 43793U 18099AM  25221.21166546  .13619297  25930-5  68059-3 0  9999
2 43793  97.4554 304.9540 0017217 272.8328  87.1002 16.40904822367265
JO-97
1 43803U 18099AX  25222.60578362  .00011402  00000-0  50116-3 0  9999
2 43803  97.4616 281.1629 0005695 288.6430  71.4187 15.22050708366203
Suomi 100
1 43804U 18099AY  25222.72374195  .00009882  00000-0  46910-3 0  9997
2 43804  97.4681 280.3915 0010547 292.8978  67.1142 15.19403757366138
ISAT
1 43879U 18111D   25222.52444064  .00022503  00000-0  72800-3 0  9997
2 43879  97.5906 138.3609 0007245 357.3769   2.7433 15.32047320363173
UWE-4
1 43880U 18111E   25222.54587736  .00016581  00000-0  61711-3 0  9993
2 43880  97.5851 136.4065 0011112   5.0706 355.0643 15.27512274363081
Sparrow
1 43881U 18111F   25222.58455827  .00023688  00000-0  73384-3 0  9998
2 43881  97.6061 141.5506 0007368  40.5022 319.6767 15.33421492363289
Prox-1
1 44339U 19036A   25222.76217747  .00011632  00000-0  14312-2 0  9992
2 44339  23.9974  13.0069 0007956  59.3887 300.7395 14.81057974327336
Taurus 1
1 44530U 19059C   25222.83065242  .00006490  00000-0  11800-2 0  9994
2 44530  98.6134   5.2252 0009357 196.0284 164.0624 14.66472392313069
Duchifat 3
1 44854U 19089C   25222.63334879  .00063519  00000-0  10234-2 0  9994
2 44854  36.9417 319.2084 0004892  98.8751 261.2561 15.51850039312573
TO-108
1 44881U 19093C   25222.86033523  .00000955  00000-0  11604-3 0  9994
2 44881  97.7896 297.2023 0014451  32.5786 327.6318 14.85710690305328
FloripaSat 1
1 44885U 19093G   25222.83857147  .00005944  00000-0  49451-3 0  9995
2 44885  97.8144 310.5870 0009616 358.3779   1.7411 14.99036683306071
RS-44
1 44909U 19096E   25222.39530920  .00000004  00000-0 -32515-4 0  9990
2 44909  82.5225 186.2105 0217944 150.7663 210.5844 12.79742437262594
UPMSat 2
1 46276U 20061E   25222.77571237  .00114603  00000-0  66063-3 0  9995
2 46276  97.2386 299.6283 0001404 205.4185 154.7014 15.78353130275243
